Clarksville, TN

10:15 PM CST on November 22, 2017 (GMT -0600)
Outlaw

Weather History for KCKV - December, 2012

Change the Weather History Date:

Wednesday, December 26, 2012

  Actual Average Record
Temperature  
Mean Temperature 35 °F 37 °F  
Max Temperature 37 °F 46 °F 75 °F (2016)
Min Temperature 33 °F 28 °F -2 °F (1983)
Degree Days  
Heating Degree Days 30    
Month to date heating degree days 424  
Since 1 July heating degree days 1280  
Cooling Degree Days 0    
Month to date cooling degree days 3  
Year to date cooling degree days  
Moisture  
Dew Point 31 °F    
Average Humidity 89    
Maximum Humidity 96    
Minimum Humidity 82    
Precipitation  
Precipitation 0.79 in 0.14 in 1.41 in (1951)
Month to date precipitation 4.82 4.39  
Year to date precipitation 49.54  
Sea Level Pressure  
Sea Level Pressure 29.70 in    
Wind  
Wind Speed 16 mph (NNW)    
Max Wind Speed 29 mph    
Max Gust Speed 36 mph    
Visibility 6 miles    
Events Fog , Rain , Snow , Thunderstorm    
T = Trace of Precipitation, MM = Missing Value Source: NWS Daily Summary

Daily Weather History Graph

Daily Weather History Graph

Search for Another Location

Airport or City:

Trip Planner

Search our weather history database for the weather conditions in past years. The results will help you decide how hot, cold, wet, or windy it might be!

Date:

Astronomy

Dec. 26, 2012 Rise Set
Actual Time 7:00 AM CST 4:40 PM CST
Civil Twilight 6:31 AM CST 5:09 PM CST
Nautical Twilight 5:59 AM CST 5:41 PM CST
Astronomical Twilight 5:27 AM CST 6:13 PM CST
Moon 3:33 PM CST (12/26) 5:24 AM CST (12/26)
Length of Visible Light 10h 37m
Length of Day
9h 40m
Waxing Gibbous, 97% of the Moon is Illuminated
Dec 26
Waxing Gibbous
Dec 28
Full
Jan 4
Last Quarter
Jan 11
New
Jan 18
First Quarter

Hourly Weather History & Observations

Time (CST) Temp. Windchill Dew Point Humidity Pressure Visibility Wind Dir Wind Speed Gust Speed Precip Events Conditions
12:29 AM 37.4 °F 27.8 °F 33.8 °F 87% 29.53 in 2.5 mi ENE 17.3 mph 27.6 mph 0.01 in Rain , Thunderstorm Rain
12:50 AM 37.4 °F 28.2 °F 35.6 °F 93% 29.52 in 2.5 mi ENE 16.1 mph 28.8 mph 0.09 in Rain Rain
12:52 AM 37.0 °F 28.1 °F 35.1 °F 93% 29.53 in 2.5 mi ENE 15.0 mph 28.8 mph 0.10 in Rain Rain
12:59 AM 37.4 °F 28.5 °F 35.6 °F 93% 29.54 in 3.0 mi ENE 15.0 mph 23.0 mph 0.02 in Rain Rain
1:07 AM 37.4 °F 29.3 °F 35.6 °F 93% 29.54 in 2.0 mi ENE 12.7 mph 19.6 mph 0.09 in Rain Heavy Rain
1:40 AM 37.4 °F 29.3 °F 35.6 °F 93% 29.53 in 3.0 mi NNE 12.7 mph - 0.29 in Rain Heavy Rain
1:52 AM 37.0 °F 28.9 °F 35.1 °F 93% 29.53 in 3.0 mi North 12.7 mph 18.4 mph 0.34 in Rain Heavy Rain
2:07 AM 37.4 °F 29.3 °F 35.6 °F 93% 29.52 in 8.0 mi North 12.7 mph - 0.02 in Rain Light Rain
2:15 AM 37.4 °F 29.3 °F 35.6 °F 93% 29.52 in 7.0 mi NNW 12.7 mph - 0.03 in Rain Light Rain
2:52 AM 36.0 °F 25.3 °F 34.0 °F 93% 29.50 in 6.0 mi NNE 19.6 mph 26.5 mph 0.06 in Snow Light Snow
3:04 AM 35.6 °F 25.2 °F 33.8 °F 93% 29.47 in 5.0 mi North 18.4 mph - 0.01 in Snow Light Snow
3:12 AM 35.6 °F 25.2 °F 33.8 °F 93% 29.47 in 4.0 mi NNE 18.4 mph 24.2 mph 0.03 in Rain Rain
3:52 AM 36.0 °F - 34.0 °F 93% 29.47 in 7.0 mi North - - 0.12 in Rain Light Rain
4:52 AM 35.1 °F 26.4 °F 33.1 °F 92% 29.49 in 6.0 mi North 12.7 mph - 0.08 in Rain Light Rain
5:52 AM 34.0 °F 24.6 °F 32.0 °F 92% 29.49 in 10.0 mi North 13.8 mph - 0.02 in Rain Light Rain
6:52 AM 33.1 °F 23.0 °F 32.0 °F 96% 29.54 in 4.0 mi NW 15.0 mph - 0.03 in Snow Light Snow
7:41 AM 33.8 °F 24.3 °F 30.2 °F 87% 29.56 in 1.8 mi NW 13.8 mph - 0.02 in Snow Light Snow
7:52 AM 33.1 °F 22.6 °F 30.9 °F 92% 29.57 in 1.2 mi NW 16.1 mph 23.0 mph 0.03 in Snow Light Snow
8:14 AM 33.8 °F 22.8 °F 30.2 °F 87% 29.58 in 0.5 mi NW 18.4 mph 24.2 mph 0.00 in Fog , Snow Snow
8:52 AM 33.1 °F 21.9 °F 30.9 °F 92% 29.62 in 1.2 mi NW 18.4 mph - 0.01 in Snow Light Snow
9:25 AM 33.8 °F 23.2 °F 30.2 °F 87% 29.63 in 3.0 mi NW 17.3 mph 24.2 mph 0.00 in Snow Light Snow
9:33 AM 33.8 °F 22.5 °F 30.2 °F 87% 29.64 in 5.0 mi NW 19.6 mph 26.5 mph 0.00 in   Overcast
9:39 AM 33.8 °F 23.5 °F 30.2 °F 87% 29.65 in 6.0 mi NNW 16.1 mph 26.5 mph 0.00 in   Overcast
9:47 AM 33.8 °F 23.5 °F 30.2 °F 87% 29.65 in 8.0 mi NW 16.1 mph 25.3 mph 0.00 in   Overcast
9:52 AM 34.0 °F 23.8 °F 30.9 °F 89% 29.67 in 9.0 mi NNW 16.1 mph 25.3 mph 0.00 in   Overcast
10:52 AM 34.0 °F 22.4 °F 30.9 °F 89% 29.72 in 9.0 mi NW 20.7 mph 25.3 mph N/A   Overcast
11:16 AM 33.8 °F 22.2 °F 30.2 °F 87% 29.72 in 1.5 mi WNW 20.7 mph 27.6 mph 0.00 in Snow Light Snow
11:25 AM 33.8 °F 23.2 °F 30.2 °F 87% 29.73 in 0.5 mi WNW 17.3 mph 26.5 mph 0.00 in Fog , Snow Snow
11:37 AM 33.8 °F 23.2 °F 30.2 °F 87% 29.73 in 0.8 mi NW 17.3 mph 25.3 mph 0.00 in Snow Light Snow
11:44 AM 33.8 °F 22.8 °F 30.2 °F 87% 29.74 in 2.0 mi NW 18.4 mph 25.3 mph 0.00 in Snow Light Snow
11:52 AM 33.1 °F 21.9 °F 30.0 °F 89% 29.75 in 9.0 mi WNW 18.4 mph 32.2 mph 0.00 in   Overcast
12:11 PM 33.8 °F 22.8 °F 28.4 °F 81% 29.75 in 10.0 mi NW 18.4 mph 28.8 mph N/A   Overcast
12:52 PM 33.1 °F 21.2 °F 28.9 °F 85% 29.79 in 10.0 mi WNW 20.7 mph 28.8 mph N/A   Overcast
1:52 PM 33.1 °F 21.9 °F 28.0 °F 82% 29.83 in 10.0 mi NW 18.4 mph 28.8 mph N/A   Overcast
2:29 PM 33.8 °F 23.2 °F 28.4 °F 81% 29.84 in 10.0 mi NW 17.3 mph 26.5 mph N/A   Overcast
2:52 PM 33.1 °F 20.9 °F 28.0 °F 82% 29.87 in 10.0 mi NW 21.9 mph 29.9 mph N/A   Overcast
3:52 PM 33.1 °F 22.2 °F 28.0 °F 82% 29.92 in 10.0 mi NW 17.3 mph 28.8 mph N/A   Overcast
4:52 PM 33.1 °F 23.0 °F 28.0 °F 82% 29.96 in 10.0 mi NW 15.0 mph 25.3 mph N/A   Overcast
5:52 PM 33.1 °F 22.2 °F 28.0 °F 82% 30.00 in 10.0 mi NW 17.3 mph 24.2 mph N/A   Overcast
6:52 PM 34.0 °F 23.4 °F 28.0 °F 79% 30.03 in 10.0 mi NW 17.3 mph 23.0 mph N/A   Overcast
7:52 PM 34.0 °F 24.6 °F 28.0 °F 79% 30.06 in 10.0 mi NW 13.8 mph 19.6 mph N/A   Overcast
8:52 PM 33.1 °F 25.5 °F 28.0 °F 82% 30.07 in 10.0 mi NNW 9.2 mph - N/A   Overcast
9:52 PM 33.1 °F 26.1 °F 28.0 °F 82% 30.10 in 10.0 mi WNW 8.1 mph - N/A   Overcast
10:52 PM 33.1 °F 24.9 °F 28.0 °F 82% 30.10 in 10.0 mi NW 10.4 mph - N/A   Overcast
11:52 PM 33.1 °F 26.1 °F 28.0 °F 82% 30.12 in 10.0 mi WNW 8.1 mph - N/A   Overcast